[[{"header":{"parameterUnit":"m.s-1","parameterCategory":2,"la1":30.2991,"la2":30.254,"lo1":-89.0895,"lo2":-89.0444,"dy":0.0017,"dx":0.0017,"nx":28,"ny":28,"refTime":"2023-10-20T03:00:00:Z","depth":"0","parameterNumber":2,"parameterNumberName":"U-component_of_CURRENTS"},"data":[0,0,0,0,0,0,0,0,0,0,0,0,0,0,0,0,0,0,0,0,0,0,0,0,0,0,0,0,0,0,0,0,0,0,0,0,0,0,0,0,0,0,0,0,0,0,0,0,0,0,0,0,0,0,0,0,0,0,0.2469,0.247,0,0.2545,0.2545,0.2545,0.2579,0.258,0.258,0.2581,0.2623,0.2624,0.2624,0,0,0,0,0,0,0,0,0,0,0,0,0,0.2322,0.2325,0.2469,0.247,0.2472,0.2545,0.2545,0.2545,0.2579,0.258,0.2581,0.2581,0.2623,0.2624,0.2625,0,0,0,0,0,0,0,0,0,0,0,0,0,0.2385,0.2325,0.2469,0.2502,0.2506,0.2544,0.2545,0.2546,0.2579,0.258,0.2581,0.2581,0.2623,0.2624,0.2625,0.2616,0,0,0.2628,0.2628,0,0,0,0,0,0,0,0,0.2381,0.2389,0.2496,0.25,0.2505,0.2559,0.2509,0.257,0.2579,0.2545,0.2581,0.2582,0.2602,0.2605,0.2609,0.2618,0.262,0.2628,0.2628,0.2629,0.2629,0,0,0,0,0,0,0,0.2377,0.2386,0.2493,0.2498,0.2503,0.2503,0.2512,0.252,0.2563,0.2548,0.2552,0.257,0.2604,0.2608,0.261,0.2621,0.2628,0.2629,0.2629,0.263,0.264,0.264,0,0,0,0,0,0,0.2382,0.2383,0.249,0.2495,0.2451,0.2506,0.2516,0.2536,0.2564,0.2571,0.257,0.2572,0.2606,0.2609,0.2612,0.2635,0.2629,0.263,0.263,0.2641,0.264,0.264,0,0,0,0,0,0,0.2378,0.239,0.2487,0.2445,0.2459,0.2509,0.253,0.2537,0.2545,0.2582,0.2587,0.2572,0.2607,0.261,0.2616,0.2636,0.263,0.2631,0.2641,0.2641,0.264,0.2662,0,0,0,0,0,0,0.2373,0.2389,0.2398,0.2446,0.2461,0.2508,0.253,0.2538,0.2558,0.2561,0.2585,0.259,0.2607,0.2614,0.2617,0.2637,0.2632,0.2642,0.2641,0.264,0.2662,0.2662,0.2663,0,0,0,0,0,0.2368,0.2386,0.2398,0.2411,0.2475,0.2509,0.2515,0.2549,0.2557,0.2558,0.2571,0.2589,0.2612,0.2614,0.2617,0.2639,0.2642,0.2641,0.264,0.2661,0.2662,0.2663,0,0,0,0,0,0,0.2327,0.2393,0.2407,0.2444,0.2472,0.2517,0.2531,0.2544,0.2555,0.2558,0.2581,0.2586,0.2598,0.2605,0.2606,0.2637,0.2632,0.2631,0.2646,0.2647,0.2648,0.2681,0.2633,0,0,0,0,0,0.2323,0.2353,0.2404,0.243,0.2448,0.2483,0.25,0.2519,0.2542,0.2548,0.2564,0.258,0.2597,0.261,0.2618,0.2633,0.2702,0.2647,0.2648,0.2649,0.2676,0.278,0.2794,0.2638,0.2638,0.2638,0,0,0.2314,0.2355,0.2372,0.2423,0.245,0.2478,0.2494,0.2521,0.2538,0.255,0.2567,0.2576,0.2596,0.2616,0.2623,0.2628,0.2732,0.2648,0.2649,0.2676,0.2781,0.2797,0.2811,0.2637,0.2637,0.2637,0,0,0.2314,0.2348,0.2373,0.2399,0.2445,0.2469,0.2475,0.2513,0.2524,0.2537,0.2555,0.258,0.259,0.2627,0.2644,0.265,0.2724,0.2641,0.2687,0.2786,0.2802,0.2816,0.2947,0.2973,0.2652,0.2652,0.2652,0,0.2302,0.2346,0.238,0.241,0.2436,0.2465,0.2488,0.2505,0.2534,0.2557,0.2543,0.2598,0.2607,0.2669,0.2672,0.2658,0.2736,0.2685,0.2793,0.2808,0.2822,0.2954,0.2982,0.2653,0.2653,0.2653,0.2652,0,0.2326,0.2356,0.2374,0.2425,0.2445,0.2473,0.2507,0.2523,0.2537,0.2568,0.2612,0.2628,0.268,0.2674,0.2678,0.2776,0.2808,0.2777,0.2802,0.2841,0.2975,0.3004,0.2654,0.2654,0.2654,0.2653,0,0,0.2334,0.238,0.2388,0.242,0.2459,0.2492,0.2511,0.2562,0.2615,0.2623,0.2702,0.2712,0.2744,0.2765,0.2777,0.2854,0.3019,0.2864,0.2869,0.3017,0.3284,0.3279,0.3311,0.3013,0.3017,0.3021,0.3347,0,0.235,0.24,0.241,0.2463,0.2506,0.2526,0.2553,0.2598,0.2638,0.2719,0.2753,0.2824,0.2773,0.2821,0.2886,0.2994,0.3093,0.2936,0.3206,0.3216,0.3224,0.3342,0.3212,0.3488,0.3376,0.3381,0.3385,0,0.2398,0.2426,0.2472,0.2522,0.254,0.2564,0.2647,0.2679,0.2777,0.281,0.2882,0.2924,0.3049,0.2989,0.3212,0.312,0.3211,0.3278,0.3292,0.3304,0.3264,0.3425,0.3546,0.3417,0.343,0.3426,0.3423,0,0.2455,0.2486,0.2526,0.2546,0.2596,0.2618,0.2645,0.272,0.2791,0.2905,0.2998,0.3093,0.3215,0.3308,0.3431,0.3352,0.3692,0.36,0.3685,0.3687,0.364,0.3629,0.3686,0.3769,0.3768,0.3767,0.3766,0,0.253,0.2596,0.256,0.2605,0.2678,0.2673,0.2774,0.2815,0.2911,0.304,0.3074,0.3215,0.3305,0.3484,0.3536,0.3738,0.3789,0.375,0.3784,0.3642,0.3628,0.356,0.3501,0.378,0.3777,0.3775,0.3772,0,0.2714,0.2664,0.2741,0.273,0.2731,0.2813,0.2874,0.2946,0.302,0.32,0.3254,0.3405,0.3622,0.3719,0.3932,0.3923,0.3975,0.4114,0.3957,0.3964,0.3855,0.3801,0.3834,0.3728,0.4272,0.4274,0.4276,0,0.2853,0.288,0.2862,0.2875,0.2895,0.2965,0.3,0.3029,0.3106,0.3321,0.3424,0.3666,0.3807,0.4117,0.4162,0.4299,0.4114,0.4245,0.4037,0.3888,0.3854,0.3663,0.3554,0.4007,0.4007,0.4006,0.4006,0,0.3087,0.3045,0.3064,0.3067,0.3083,0.3133,0.3174,0.3236,0.3297,0.3418,0.3593,0.3716,0.4014,0.4079,0.425,0.4298,0.4028,0.4238,0.4124,0.3707,0.3468,0.3367,0.3775,0.4001,0.4001,0.4002,0.4002,0.4002,0.3237,0.328,0.3194,0.323,0.3235,0.3228,0.3214,0.3257,0.3331,0.3406,0.3623,0.3711,0.3897,0.4101,0.4138,0.4093,0.4051,0.396,0.3939,0.3782,0.3562,0.3979,0.419,0.4191,0.4192,0.4193,0.4194,0,0.3322,0.3305,0.3339,0.3277,0.3255,0.3249,0.3254,0.3182,0.3179,0.3329,0.342,0.356,0.3652,0.3765,0.3869,0.3785,0.3574,0.3696,0.337,0.33,0.3733,0.3594,0.3634,0.3634,0.3634,0.3634,0.3634,0.3634,0.3336,0.3327,0.3313,0.324,0.3204,0.3066,0.3015,0.2955,0.2981,0.2975,0.3019,0.3151,0.3426,0.3609,0.3574,0.3505,0.3221,0.3133,0.3101,0.3369,0.3387,0.3405,0.3257,0.3225,0.3225,0.2498,0.2493,0.2489]},{"header":{"parameterUnit":"m.s-1","parameterCategory":2,"la1":30.2991,"la2":30.254,"lo1":-89.0895,"lo2":-89.0444,"dy":0.0017,"dx":0.0017,"nx":28,"ny":28,"refTime":"2023-10-20T03:00:00:Z","depth":"0","parameterNumber":3,"parameterNumberName":"V-component_of_CURRENTS"},"data":[0,0,0,0,0,0,0,0,0,0,0,0,0,0,0,0,0,0,0,0,0,0,0,0,0,0,0,0,0,0,0,0,0,0,0,0,0,0,0,0,0,0,0,0,0,0,0,0,0,0,0,0,0,0,0,0,0,0,-0.0244,-0.0245,0,-0.0299,-0.03,-0.03,-0.0382,-0.0383,-0.0385,-0.0386,-0.0505,-0.0507,-0.0509,0,0,0,0,0,0,0,0,0,0,0,0,0,-0.0205,-0.0205,-0.0244,-0.0245,-0.0245,-0.0299,-0.03,-0.03,-0.0382,-0.0383,-0.0385,-0.0386,-0.0505,-0.0507,-0.0509,0,0,0,0,0,0,0,0,0,0,0,0,0,-0.0238,-0.0206,-0.0244,-0.0292,-0.0296,-0.0299,-0.03,-0.0301,-0.0381,-0.0383,-0.0385,-0.0387,-0.0504,-0.0507,-0.051,-0.0487,0,0,-0.0519,-0.052,0,0,0,0,0,0,0,0,-0.0236,-0.0239,-0.0284,-0.0288,-0.0294,-0.0335,-0.033,-0.0366,-0.0381,-0.035,-0.0386,-0.0388,-0.0452,-0.0459,-0.0466,-0.0493,-0.0498,-0.0519,-0.0521,-0.0522,-0.0523,0,0,0,0,0,0,0,-0.0234,-0.0238,-0.0267,-0.0284,-0.029,-0.0308,-0.0315,-0.0337,-0.0391,-0.0353,-0.0359,-0.0362,-0.0456,-0.0463,-0.0469,-0.05,-0.0519,-0.0521,-0.0523,-0.0524,-0.0521,-0.052,0,0,0,0,0,0,-0.0223,-0.0235,-0.0265,-0.0269,-0.0268,-0.0307,-0.0315,-0.032,-0.039,-0.0401,-0.0361,-0.0366,-0.0457,-0.0466,-0.0474,-0.046,-0.0522,-0.0525,-0.0526,-0.0523,-0.0521,-0.0519,0,0,0,0,0,0,-0.0222,-0.0225,-0.0263,-0.0252,-0.0258,-0.0306,-0.0311,-0.032,-0.0326,-0.0395,-0.0408,-0.0357,-0.0459,-0.047,-0.0484,-0.0466,-0.0526,-0.0528,-0.0525,-0.0522,-0.052,-0.0428,0,0,0,0,0,0,-0.022,-0.0224,-0.0223,-0.0251,-0.0259,-0.0249,-0.0309,-0.032,-0.0325,-0.0333,-0.0395,-0.0409,-0.0461,-0.0479,-0.0487,-0.0471,-0.0531,-0.0528,-0.0524,-0.0521,-0.0433,-0.0422,-0.0413,0,0,0,0,0,-0.0219,-0.0203,-0.0223,-0.0226,-0.0256,-0.0247,-0.0251,-0.0293,-0.0322,-0.0309,-0.0356,-0.0407,-0.0464,-0.048,-0.049,-0.0474,-0.0529,-0.0525,-0.0521,-0.0438,-0.0424,-0.0413,0,0,0,0,0,0,-0.0175,-0.021,-0.0233,-0.0227,-0.023,-0.026,-0.0254,-0.0277,-0.0301,-0.0315,-0.0383,-0.0398,-0.0408,-0.044,-0.0457,-0.046,-0.0504,-0.0502,-0.0437,-0.0426,-0.0416,-0.0379,-0.0533,0,0,0,0,0,-0.0165,-0.017,-0.0193,-0.0183,-0.0185,-0.0215,-0.0217,-0.024,-0.0265,-0.0278,-0.0322,-0.0365,-0.0394,-0.041,-0.0442,-0.0435,-0.0446,-0.043,-0.0419,-0.0411,-0.0385,-0.0374,-0.036,-0.0506,-0.0506,-0.0506,0,0,-0.0144,-0.0163,-0.0165,-0.0175,-0.0187,-0.0172,-0.0221,-0.0213,-0.0205,-0.0286,-0.029,-0.0332,-0.0384,-0.0389,-0.0394,-0.0416,-0.0375,-0.0406,-0.0398,-0.0376,-0.0368,-0.0354,-0.0342,-0.0503,-0.0503,-0.0504,0,0,-0.009,-0.0119,-0.0101,-0.0102,-0.0112,-0.013,-0.012,-0.014,-0.0157,-0.0156,-0.0218,-0.0234,-0.028,-0.0309,-0.0331,-0.0274,-0.0324,-0.0293,-0.0213,-0.0203,-0.0191,-0.018,-0.0177,-0.0167,-0.0286,-0.0286,-0.0286,0,-0.0062,-0.0049,-0.0087,-0.0065,-0.0063,-0.0104,-0.0072,-0.0085,-0.0108,-0.0108,-0.0145,-0.0182,-0.0237,-0.0229,-0.0223,-0.0251,-0.0256,-0.0261,-0.0189,-0.0179,-0.017,-0.0169,-0.0159,-0.0281,-0.0281,-0.0282,-0.0282,0,0.0007,0.0014,0.0032,0.0032,0.0034,0.0058,0.0032,0.0035,0.0006,-0.0009,-0.0004,-0.0059,-0.0077,-0.0102,-0.0154,-0.0113,-0.0141,-0.0181,-0.022,-0.0149,-0.0154,-0.0145,-0.0274,-0.0275,-0.0277,-0.0278,0,0,0.0075,0.0078,0.0083,0.01,0.0084,0.0102,0.0112,0.0121,0.0149,0.0118,0.0163,0.0102,0.008,0.0057,0.0002,0.0005,0.0045,-0.0055,-0.0057,-0.0051,0.0069,0.0029,0.0034,0.0015,0.0017,0.0019,0.0039,0,0.0143,0.02,0.0175,0.0232,0.026,0.022,0.0241,0.0238,0.0227,0.0261,0.0218,0.0235,0.0138,0.0144,0.0131,0.0074,0.0074,0.0044,0.0,-0.0,-0.0045,0.0045,-0.0,0.0013,0.0047,0.0049,0.005,0,0.0223,0.0244,0.0311,0.0332,0.0341,0.037,0.0398,0.0413,0.0428,0.0424,0.0431,0.0398,0.0402,0.0315,0.0269,0.0254,0.0176,0.0124,0.0123,0.0065,-0.0023,-0.0051,0.0027,-0.0189,0.0063,0.0062,0.0061,0,0.0301,0.034,0.0396,0.0404,0.0423,0.0451,0.0464,0.0475,0.0518,0.0551,0.0606,0.057,0.0602,0.0504,0.0378,0.0332,0.0333,0.025,0.0144,0.0139,0.0085,0.0072,-0.0048,0.023,0.023,0.023,0.0229,0,0.0382,0.0424,0.0445,0.0481,0.0557,0.0538,0.0631,0.0631,0.0687,0.0784,0.0714,0.0808,0.0655,0.0624,0.0464,0.035,0.0398,0.0192,0.0157,0.0114,0.0104,-0.0102,-0.0199,0.023,0.023,0.023,0.023,0,0.045,0.0468,0.0541,0.0582,0.0604,0.0662,0.0743,0.0807,0.0848,0.0984,0.1013,0.102,0.0983,0.0808,0.0676,0.0494,0.0243,0.0297,0.0254,0.0214,-0.0114,-0.0203,-0.0308,-0.0395,0.0189,0.0188,0.0187,0,0.0483,0.0531,0.0621,0.0662,0.0686,0.077,0.0829,0.0887,0.0973,0.1133,0.1219,0.1238,0.1275,0.1056,0.0731,0.046,0.0263,0.0228,0.0121,-0.0105,-0.023,-0.0303,-0.0375,0.0083,0.0081,0.008,0.0079,0,0.0517,0.0562,0.0603,0.0712,0.0792,0.0903,0.1006,0.1114,0.1219,0.1362,0.1542,0.1598,0.1399,0.1137,0.0745,0.0518,0.0068,0.0196,-0.0021,-0.0289,-0.039,-0.0501,0.0031,0.0069,0.007,0.0071,0.0072,0.0072,0.051,0.0557,0.0619,0.0729,0.0835,0.0997,0.112,0.1262,0.1456,0.1678,0.1745,0.1842,0.1455,0.0925,0.0614,-0.0034,0.0005,-0.0252,-0.0328,-0.0373,-0.0493,0.002,0.0001,0.0001,0.0002,0.0002,0.0003,0,0.0464,0.0525,0.0617,0.0759,0.0899,0.0971,0.1196,0.1349,0.1605,0.1792,0.1956,0.1794,0.1287,0.0752,-0.0062,-0.049,-0.0658,-0.0725,-0.086,-0.0899,-0.0434,-0.048,-0.0625,-0.0625,-0.0625,-0.0625,-0.0624,-0.0624,0.0427,0.0488,0.0567,0.0767,0.0894,0.1118,0.1271,0.1519,0.1696,0.1923,0.1971,0.1991,0.1606,0.0216,-0.0772,-0.1009,-0.1273,-0.1333,-0.1438,-0.1171,-0.1134,-0.1099,-0.1168,-0.1455,-0.1456,-0.1898,-0.1903,-0.1906]}],[{"header":{"parameterUnit":"m.s-1","parameterCategory":2,"la1":30.2991,"la2":30.254,"lo1":-89.0895,"lo2":-89.0444,"dy":0.0017,"dx":0.0017,"nx":28,"ny":28,"refTime":"2023-10-20T03:00:00:Z","depth":"2","parameterNumber":2,"parameterNumberName":"U-component_of_CURRENTS"},"data":[0,0,0,0,0,0,0,0,0,0,0,0,0,0,0,0,0,0,0,0,0,0,0,0,0,0,0,0,0,0,0,0,0,0,0,0,0,0,0,0,0,0,0,0,0,0,0,0,0,0,0,0,0,0,0,0,0,0,0.1818,0.1818,0,0.1926,0.1927,0.1929,0.2004,0.2004,0.2004,0.2004,0.2104,0.2107,0.2109,0,0,0,0,0,0,0,0,0,0,0,0,0,0.1737,0.1738,0.1817,0.1818,0.1819,0.1926,0.1927,0.1929,0.2004,0.2004,0.2004,0.2004,0.2103,0.2106,0.2109,0,0,0,0,0,0,0,0,0,0,0,0,0,0.1805,0.1738,0.1817,0.1866,0.1871,0.1925,0.1927,0.193,0.2003,0.2004,0.2004,0.2004,0.2102,0.2106,0.211,0.2127,0,0,0.2121,0.2123,0,0,0,0,0,0,0,0,0.1801,0.1808,0.1858,0.1863,0.1869,0.1948,0.1936,0.1994,0.2003,0.1958,0.2004,0.2004,0.2048,0.2056,0.2082,0.2132,0.2136,0.2121,0.2124,0.2125,0.2126,0,0,0,0,0,0,0,0.1796,0.1804,0.1865,0.1859,0.1865,0.1904,0.1913,0.1948,0.2003,0.1962,0.1966,0.1972,0.2052,0.2078,0.2085,0.2138,0.2121,0.2125,0.2127,0.2128,0.2169,0.2168,0,0,0,0,0,0,0.1771,0.1799,0.1861,0.1867,0.183,0.1904,0.1916,0.1926,0.2003,0.2014,0.1971,0.1975,0.2072,0.2081,0.2089,0.2149,0.2125,0.2129,0.2131,0.217,0.2169,0.2168,0,0,0,0,0,0,0.1769,0.1775,0.1857,0.1832,0.1845,0.1904,0.1916,0.1927,0.1963,0.201,0.2022,0.1995,0.2072,0.2083,0.2092,0.2152,0.213,0.2134,0.2172,0.217,0.2168,0.2248,0,0,0,0,0,0,0.1766,0.1774,0.179,0.1831,0.1845,0.1888,0.1915,0.1929,0.1963,0.1969,0.2033,0.2043,0.2074,0.2086,0.2096,0.2157,0.2137,0.2173,0.2171,0.2169,0.2247,0.2249,0.2251,0,0,0,0,0,0.1763,0.1782,0.179,0.1798,0.1859,0.1888,0.1899,0.1945,0.1964,0.1979,0.1997,0.2041,0.208,0.2088,0.21,0.2164,0.2174,0.2171,0.2169,0.2246,0.2248,0.2251,0,0,0,0,0,0,0.1754,0.1792,0.1801,0.1831,0.1853,0.1899,0.193,0.1946,0.1978,0.1988,0.2025,0.2034,0.2068,0.2075,0.2083,0.2156,0.2136,0.2136,0.219,0.2193,0.2195,0.2195,0.214,0,0,0,0,0,0.1755,0.1777,0.1808,0.1826,0.1846,0.1886,0.191,0.1932,0.1957,0.1975,0.2011,0.2038,0.2066,0.2094,0.2111,0.2154,0.2188,0.2195,0.2197,0.2199,0.2199,0.2287,0.23,0.2159,0.2159,0.2159,0,0,0.1754,0.1776,0.1789,0.1825,0.1858,0.1889,0.1904,0.1938,0.1963,0.1978,0.2028,0.2047,0.2068,0.2115,0.2133,0.2136,0.2255,0.2196,0.2199,0.2197,0.2287,0.2301,0.2315,0.2157,0.2157,0.2158,0,0,0.1764,0.1786,0.1817,0.1837,0.1875,0.1898,0.1903,0.1949,0.1977,0.2001,0.2024,0.2057,0.21,0.2142,0.2163,0.2177,0.2252,0.2192,0.2235,0.2322,0.2336,0.2349,0.242,0.2439,0.221,0.221,0.221,0,0.177,0.1798,0.1826,0.1859,0.1879,0.1899,0.193,0.1959,0.1995,0.2022,0.2015,0.2095,0.2116,0.2194,0.2197,0.2195,0.2247,0.2241,0.2333,0.2346,0.2359,0.2428,0.2447,0.2214,0.2213,0.2213,0.2213,0,0.1792,0.1826,0.1845,0.1891,0.1917,0.1938,0.1973,0.2006,0.2031,0.2058,0.2121,0.2146,0.2204,0.222,0.2218,0.2321,0.2332,0.2325,0.2347,0.2379,0.2448,0.2467,0.2219,0.2218,0.2217,0.2216,0,0,0.1793,0.1851,0.186,0.1898,0.1932,0.1964,0.2002,0.2053,0.2108,0.2134,0.2214,0.2247,0.2279,0.2299,0.2329,0.2394,0.2524,0.2403,0.2406,0.2507,0.2726,0.266,0.2675,0.2559,0.2562,0.2565,0.2746,0,0.1809,0.1866,0.1885,0.1948,0.1993,0.2019,0.2056,0.2103,0.2149,0.223,0.2269,0.2345,0.2308,0.237,0.2426,0.2511,0.2576,0.2475,0.2647,0.2651,0.2619,0.2695,0.2453,0.2588,0.2765,0.2768,0.277,0,0.1843,0.1872,0.1934,0.2005,0.2028,0.2061,0.2151,0.2194,0.2284,0.2324,0.24,0.2441,0.2551,0.2507,0.2672,0.2622,0.2669,0.2711,0.272,0.2642,0.2621,0.2577,0.2617,0.2803,0.28,0.2798,0.2796,0,0.1866,0.1924,0.1975,0.1994,0.2065,0.2106,0.2146,0.2227,0.2301,0.2415,0.2503,0.2589,0.2698,0.2759,0.2831,0.2785,0.3005,0.2959,0.2932,0.2929,0.2742,0.2715,0.3055,0.3055,0.3055,0.3054,0.3054,0,0.1899,0.1963,0.1994,0.203,0.2104,0.2143,0.2272,0.23,0.2409,0.2529,0.2577,0.2695,0.2773,0.2895,0.2908,0.2998,0.3079,0.2958,0.2981,0.2758,0.2732,0.2916,0.2898,0.3061,0.3059,0.3058,0.3057,0,0.1992,0.1993,0.206,0.2101,0.2135,0.2197,0.2345,0.2407,0.2522,0.2693,0.2743,0.2846,0.2994,0.3052,0.3182,0.3129,0.3193,0.3189,0.2911,0.2896,0.3035,0.3018,0.3194,0.3193,0.3193,0.3192,0.3192,0,0.2029,0.2071,0.2128,0.2121,0.2154,0.2275,0.2328,0.2447,0.2522,0.2785,0.283,0.3026,0.3088,0.3235,0.3189,0.3211,0.3255,0.3003,0.2841,0.305,0.3055,0.3039,0.3022,0.2635,0.263,0.2627,0.2623,0,0.2018,0.205,0.205,0.2108,0.2135,0.2272,0.2364,0.2447,0.2616,0.2746,0.2858,0.2931,0.3088,0.2977,0.3029,0.2992,0.2971,0.2922,0.3267,0.2621,0.2534,0.2535,0.2536,0.2588,0.2591,0.2594,0.2596,0.2597,0.1903,0.1923,0.1884,0.1996,0.2047,0.2151,0.2269,0.2345,0.2453,0.2598,0.2719,0.2772,0.2803,0.2724,0.2667,0.2642,0.2804,0.2673,0.2681,0.2695,0.2582,0.2496,0.2523,0.2525,0.2528,0.253,0.2533,0,0.1649,0.1725,0.1761,0.1819,0.193,0.2073,0.2195,0.2262,0.2352,0.2431,0.2498,0.2299,0.2252,0.2344,0.2234,0.2211,0.2139,0.215,0.204,0.2078,0.2112,0.1963,0.1743,0.1741,0.1738,0.1736,0,0,0.1447,0.1422,0.155,0.1648,0.1831,0.1956,0.207,0.21,0.2128,0.2066,0.2079,0.2173,0.2278,0.1982,0.1931,0.1845,0.1943,0.1775,0.241,0.2321,0.2351,0.242,0.2237,0,0,0,0,0]},{"header":{"parameterUnit":"m.s-1","parameterCategory":2,"la1":30.2991,"la2":30.254,"lo1":-89.0895,"lo2":-89.0444,"dy":0.0017,"dx":0.0017,"nx":28,"ny":28,"refTime":"2023-10-20T03:00:00:Z","depth":"2","parameterNumber":3,"parameterNumberName":"V-component_of_CURRENTS"},"data":[0,0,0,0,0,0,0,0,0,0,0,0,0,0,0,0,0,0,0,0,0,0,0,0,0,0,0,0,0,0,0,0,0,0,0,0,0,0,0,0,0,0,0,0,0,0,0,0,0,0,0,0,0,0,0,0,0,0,-0.0058,-0.0058,0,-0.0122,-0.0123,-0.0124,-0.021,-0.0211,-0.0212,-0.0213,-0.0365,-0.0368,-0.0371,0,0,0,0,0,0,0,0,0,0,0,0,0,-0.0035,-0.0035,-0.0058,-0.0058,-0.0059,-0.0122,-0.0123,-0.0124,-0.021,-0.0211,-0.0212,-0.0214,-0.0364,-0.0368,-0.0372,0,0,0,0,0,0,0,0,0,0,0,0,0,-0.0071,-0.0035,-0.0058,-0.0106,-0.011,-0.0122,-0.0123,-0.0125,-0.021,-0.0211,-0.0213,-0.0214,-0.0363,-0.0368,-0.0372,-0.0371,0,0,-0.0387,-0.0389,0,0,0,0,0,0,0,0,-0.0068,-0.0072,-0.0098,-0.0102,-0.0107,-0.0155,-0.017,-0.021,-0.0209,-0.0177,-0.0213,-0.0215,-0.0299,-0.0309,-0.0323,-0.0378,-0.0385,-0.0387,-0.039,-0.0392,-0.0393,0,0,0,0,0,0,0,-0.0066,-0.007,-0.0088,-0.0098,-0.0104,-0.0132,-0.0139,-0.0178,-0.0234,-0.018,-0.0185,-0.0184,-0.0303,-0.0318,-0.0328,-0.0387,-0.0387,-0.0391,-0.0394,-0.0396,-0.0451,-0.0449,0,0,0,0,0,0,-0.0045,-0.0067,-0.0086,-0.009,-0.0086,-0.013,-0.0139,-0.0142,-0.0232,-0.0245,-0.0183,-0.0188,-0.031,-0.0322,-0.0333,-0.0354,-0.0392,-0.0396,-0.0399,-0.0452,-0.045,-0.0449,0,0,0,0,0,0,-0.0045,-0.0047,-0.0083,-0.0076,-0.0082,-0.0129,-0.0133,-0.0143,-0.0162,-0.0232,-0.0249,-0.0191,-0.0311,-0.0327,-0.0358,-0.036,-0.0398,-0.0403,-0.0453,-0.0451,-0.045,-0.0384,0,0,0,0,0,0,-0.0044,-0.0046,-0.005,-0.0074,-0.0082,-0.0084,-0.0131,-0.0143,-0.0156,-0.0164,-0.0244,-0.026,-0.0314,-0.035,-0.0362,-0.0367,-0.0406,-0.0455,-0.0453,-0.045,-0.0388,-0.038,-0.0373,0,0,0,0,0,-0.0043,-0.0035,-0.005,-0.0052,-0.0083,-0.0083,-0.0089,-0.0131,-0.0155,-0.0156,-0.0203,-0.0258,-0.0343,-0.0352,-0.0367,-0.0374,-0.0456,-0.0453,-0.045,-0.0391,-0.0382,-0.0374,0,0,0,0,0,0,-0.0021,-0.0043,-0.006,-0.0059,-0.0067,-0.0096,-0.01,-0.0121,-0.0159,-0.017,-0.0241,-0.0259,-0.029,-0.0326,-0.0335,-0.0377,-0.0408,-0.0408,-0.0358,-0.035,-0.0343,-0.0312,-0.041,0,0,0,0,0,-0.0015,-0.0018,-0.0037,-0.0031,-0.0036,-0.0065,-0.0073,-0.0094,-0.0123,-0.0142,-0.0195,-0.0245,-0.0286,-0.0313,-0.0355,-0.0374,-0.0396,-0.0384,-0.0377,-0.0371,-0.0353,-0.0368,-0.036,-0.0439,-0.0439,-0.0439,0,0,-0.0002,-0.0013,-0.0015,-0.0027,-0.0041,-0.0039,-0.0076,-0.0075,-0.0079,-0.0152,-0.0179,-0.0224,-0.0284,-0.0311,-0.0328,-0.0345,-0.0361,-0.0367,-0.0361,-0.0346,-0.0364,-0.0356,-0.035,-0.0437,-0.0437,-0.0437,0,0,0.0034,0.0012,0.0021,0.0015,0.0006,-0.0013,-0.0007,-0.0032,-0.0055,-0.0069,-0.0127,-0.0157,-0.0222,-0.0262,-0.0291,-0.0261,-0.0322,-0.0283,-0.0228,-0.0243,-0.0237,-0.0231,-0.0259,-0.0257,-0.028,-0.0279,-0.0279,0,0.0047,0.0056,0.0028,0.0038,0.0037,0.0004,0.002,-0.0002,-0.0033,-0.0042,-0.0069,-0.0138,-0.0196,-0.0222,-0.0218,-0.0247,-0.0267,-0.0263,-0.0234,-0.0229,-0.0225,-0.0254,-0.0253,-0.0276,-0.0276,-0.0277,-0.0277,0,0.0092,0.0093,0.0104,0.0096,0.0092,0.0105,0.0078,0.0069,0.0042,0.002,-0.0004,-0.0063,-0.01,-0.0129,-0.0171,-0.0171,-0.02,-0.0225,-0.0258,-0.0213,-0.0247,-0.0247,-0.0271,-0.0272,-0.0273,-0.0274,0,0,0.0127,0.0133,0.0133,0.0142,0.0124,0.0132,0.0126,0.0117,0.0127,0.0086,0.01,0.0026,0.0004,-0.0026,-0.008,-0.0097,-0.01,-0.0142,-0.0145,-0.0172,-0.014,-0.0204,-0.0211,-0.0123,-0.0122,-0.0121,-0.0179,0,0.0167,0.0204,0.0189,0.0219,0.0231,0.0201,0.0205,0.0191,0.0171,0.0175,0.0122,0.0113,0.0039,0.0035,0.0004,-0.0065,-0.0093,-0.0082,-0.0176,-0.0179,-0.0243,-0.021,-0.0197,-0.0251,-0.0179,-0.0179,-0.0179,0,0.0206,0.0224,0.0267,0.0282,0.0285,0.0302,0.0308,0.031,0.0297,0.0285,0.0268,0.0228,0.0198,0.0139,0.0044,0.0055,-0.0032,-0.0092,-0.0097,-0.0175,-0.0241,-0.0282,-0.0253,-0.0179,-0.0179,-0.0179,-0.0179,0,0.0244,0.0273,0.0313,0.0318,0.0331,0.035,0.0359,0.035,0.0375,0.0374,0.0409,0.0339,0.0341,0.0232,0.0093,0.0075,-0.0011,-0.0054,-0.0198,-0.0205,-0.022,-0.0229,-0.0118,-0.0118,-0.0118,-0.0118,-0.0118,0,0.0278,0.03,0.0343,0.0365,0.0417,0.041,0.0479,0.0461,0.0495,0.0568,0.0486,0.0528,0.037,0.0294,0.0142,-0.0023,0.0021,-0.0177,-0.0217,-0.0199,-0.0205,-0.0162,-0.0166,-0.012,-0.012,-0.0119,-0.0119,0,0.0284,0.0315,0.0363,0.0413,0.0438,0.0473,0.0563,0.0611,0.0636,0.0737,0.0753,0.0685,0.0581,0.0394,0.0218,0.0056,-0.0108,-0.0186,-0.0164,-0.0201,-0.0306,-0.0306,-0.034,-0.0343,-0.0345,-0.0347,-0.0348,0,0.0281,0.0317,0.0407,0.0447,0.0471,0.0552,0.0614,0.0666,0.074,0.0846,0.0896,0.0829,0.0769,0.0454,0.0161,-0.0127,-0.0139,-0.0298,-0.0337,-0.029,-0.0325,-0.0322,-0.0319,-0.0334,-0.0335,-0.0336,-0.0337,0,0.0274,0.0321,0.0361,0.0475,0.0552,0.0659,0.0766,0.0858,0.0965,0.105,0.1115,0.1073,0.0771,0.0459,0.0063,-0.0128,-0.0255,-0.0332,-0.0264,-0.0288,-0.0291,-0.0324,-0.0319,-0.0346,-0.0345,-0.0345,-0.0344,-0.0344,0.0274,0.0306,0.0406,0.051,0.06,0.0766,0.0898,0.103,0.1184,0.1328,0.1241,0.118,0.0816,0.0278,-0.0036,-0.0343,-0.0346,-0.0454,-0.0447,-0.044,-0.0437,-0.0445,-0.0529,-0.0529,-0.0529,-0.0529,-0.0529,0,0.0315,0.0371,0.0447,0.0604,0.0731,0.0785,0.1001,0.1155,0.1377,0.1399,0.1406,0.1048,0.068,0.0323,-0.0155,-0.0474,-0.0474,-0.0544,-0.0468,-0.0459,-0.0451,-0.0445,-0.0541,-0.0541,-0.0541,-0.0542,0,0,0.0354,0.0449,0.051,0.0728,0.0828,0.1054,0.1202,0.1391,0.1476,0.1512,0.1436,0.1205,0.0759,0.0409,-0.0011,-0.025,-0.0273,-0.0302,-0.027,-0.0125,-0.0111,-0.039,-0.0371,0,0,0,0,0]}],[{"header":{"parameterUnit":"m.s-1","parameterCategory":2,"la1":30.2991,"la2":30.254,"lo1":-89.0895,"lo2":-89.0444,"dy":0.0017,"dx":0.0017,"nx":28,"ny":28,"refTime":"2023-10-20T03:00:00:Z","depth":"4","parameterNumber":2,"parameterNumberName":"U-component_of_CURRENTS"},"data":[0,0,0,0,0,0,0,0,0,0,0,0,0,0,0,0,0,0,0,0,0,0,0,0,0,0,0,0,0,0,0,0,0,0,0,0,0,0,0,0,0,0,0,0,0,0,0,0,0,0,0,0,0,0,0,0,0,0,0.0748,0.0749,0,0.0776,0.0776,0.0776,0.0776,0.0776,0.0776,0.0776,0.0782,0.0782,0.0782,0,0,0,0,0,0,0,0,0,0,0,0,0,0.0652,0.0654,0.0748,0.0749,0.0749,0.0776,0.0776,0.0776,0.0776,0.0776,0.0776,0.0776,0.0782,0.0782,0.0782,0,0,0,0,0,0,0,0,0,0,0,0,0,0.0685,0.0654,0.0748,0.0756,0.0757,0.0776,0.0776,0.0776,0.0776,0.0776,0.0776,0.0776,0.0782,0.0782,0.0782,0.0784,0,0,0.0783,0.0783,0,0,0,0,0,0,0,0,0.0683,0.0688,0.0754,0.0755,0.0757,0.0776,0.0745,0.0779,0.0776,0.0765,0.0776,0.0776,0.0781,0.0781,0.0781,0.0784,0.0784,0.0783,0.0783,0.0783,0.0784,0,0,0,0,0,0,0,0.0681,0.0686,0.0755,0.0755,0.0756,0.0743,0.0748,0.0751,0.0769,0.0766,0.0767,0.0776,0.0781,0.0781,0.0781,0.0785,0.0783,0.0783,0.0784,0.0784,0.0913,0.0916,0,0,0,0,0,0,0.0688,0.0685,0.0754,0.0756,0.0723,0.0746,0.075,0.0767,0.0769,0.0771,0.0776,0.0776,0.078,0.0781,0.0781,0.0853,0.0783,0.0784,0.0784,0.091,0.0914,0.0917,0,0,0,0,0,0,0.0686,0.0694,0.0753,0.0723,0.0731,0.0748,0.0766,0.0767,0.08,0.0778,0.0779,0.0812,0.078,0.0781,0.0838,0.085,0.0784,0.0784,0.0906,0.0911,0.0916,0.095,0,0,0,0,0,0,0.0683,0.0693,0.0716,0.0724,0.0733,0.0798,0.0766,0.0768,0.0806,0.0807,0.0809,0.0807,0.078,0.0838,0.0838,0.0849,0.0784,0.0902,0.0908,0.0914,0.0945,0.0956,0.0965,0,0,0,0,0,0.0679,0.0709,0.0717,0.0726,0.0761,0.08,0.0804,0.0812,0.0808,0.0838,0.0853,0.0809,0.0877,0.0842,0.0841,0.0852,0.0899,0.0906,0.0914,0.094,0.0954,0.0965,0,0,0,0,0,0,0.0687,0.0712,0.0721,0.076,0.0795,0.0803,0.083,0.0837,0.087,0.0879,0.0852,0.0853,0.0912,0.0896,0.0858,0.0917,0.088,0.0888,0.0901,0.0913,0.0923,0.0953,0.0784,0,0,0,0,0,0.0699,0.0723,0.0755,0.079,0.0813,0.083,0.085,0.0863,0.0887,0.0902,0.0903,0.0916,0.0936,0.0939,0.0962,0.0986,0.0999,0.0999,0.1009,0.1017,0.1048,0.1103,0.112,0.0942,0.0942,0.0942,0,0,0.0709,0.0729,0.0743,0.0793,0.0817,0.0852,0.0842,0.0893,0.0919,0.0898,0.0944,0.0963,0.0963,0.0999,0.102,0.0984,0.1072,0.1026,0.1032,0.1059,0.1112,0.1129,0.1144,0.0947,0.0946,0.0945,0,0,0.0733,0.0769,0.0794,0.0826,0.0878,0.0896,0.0923,0.0959,0.0978,0.1038,0.1027,0.1073,0.1094,0.1091,0.1091,0.1179,0.1141,0.1176,0.122,0.1273,0.1287,0.13,0.1312,0.1325,0.1157,0.1157,0.1157,0,0.0744,0.0786,0.0812,0.0845,0.0877,0.0921,0.0963,0.0988,0.1038,0.1063,0.1071,0.114,0.114,0.1167,0.1202,0.1196,0.1213,0.1157,0.1282,0.1295,0.1308,0.1317,0.1332,0.1159,0.1159,0.1159,0.1159,0,0.0779,0.0821,0.0847,0.0898,0.0937,0.0992,0.1031,0.1078,0.1118,0.114,0.1216,0.1237,0.1274,0.1272,0.1265,0.1337,0.1316,0.1299,0.1238,0.1327,0.1332,0.1346,0.1163,0.1162,0.1161,0.1161,0,0,0.078,0.0855,0.0868,0.0895,0.0977,0.1006,0.1069,0.1135,0.1179,0.1237,0.1298,0.1346,0.1371,0.138,0.1364,0.1405,0.1497,0.1396,0.1397,0.1385,0.1595,0.1483,0.1487,0.1498,0.1502,0.1505,0.1552,0,0.0809,0.0866,0.0908,0.0974,0.1009,0.107,0.1124,0.1184,0.1245,0.1316,0.1352,0.1423,0.1399,0.1436,0.1474,0.1509,0.1544,0.1485,0.1533,0.1535,0.1406,0.1504,0.1516,0.1562,0.1565,0.1568,0.157,0,0.0826,0.0865,0.0928,0.1007,0.1034,0.1088,0.1185,0.1241,0.1339,0.1394,0.1462,0.1502,0.1575,0.1561,0.1642,0.1607,0.1626,0.1639,0.164,0.1542,0.1452,0.1467,0.1595,0.1593,0.1591,0.159,0.1588,0,0.0786,0.0878,0.0927,0.0953,0.1051,0.1103,0.1177,0.1272,0.1325,0.1459,0.1522,0.1601,0.1674,0.1713,0.1738,0.1714,0.1826,0.178,0.1686,0.1676,0.174,0.1726,0.1867,0.1866,0.1866,0.1866,0.1866,0,0.0779,0.081,0.0918,0.0938,0.0988,0.1096,0.1171,0.1248,0.1394,0.1456,0.1565,0.1623,0.1734,0.1787,0.1785,0.1775,0.1857,0.1729,0.1701,0.175,0.1737,0.1747,0.1733,0.1868,0.1868,0.1867,0.1867,0,0.0676,0.0767,0.0802,0.0927,0.0956,0.0992,0.113,0.1193,0.1361,0.1452,0.1512,0.1686,0.177,0.1817,0.1903,0.1834,0.1833,0.1807,0.1853,0.182,0.1632,0.162,0.1713,0.171,0.1707,0.1705,0.1703,0,0.0605,0.0621,0.073,0.0752,0.0804,0.0881,0.0934,0.1126,0.1201,0.1446,0.1481,0.1661,0.1733,0.176,0.1828,0.1822,0.1796,0.1778,0.1724,0.1664,0.1627,0.1618,0.161,0.1699,0.1699,0.1698,0.1697,0,0.0444,0.0507,0.0547,0.0602,0.0662,0.0705,0.0822,0.0881,0.1117,0.1258,0.1431,0.1527,0.163,0.1704,0.1732,0.171,0.1781,0.175,0.1755,0.1704,0.1648,0.1612,0.1606,0.1688,0.1689,0.169,0.1691,0,0.0311,0.0303,0.0399,0.0442,0.0508,0.0578,0.0637,0.0783,0.0905,0.1212,0.1251,0.1446,0.1612,0.1645,0.1647,0.1649,0.162,0.1552,0.1566,0.1577,0.1512,0.142,0.1395,0,0,0,0,0,0.0181,0.0213,0.0235,0.0326,0.0402,0.0457,0.0591,0.0686,0.0903,0.0984,0.1143,0.1233,0.1359,0.1459,0.1433,0.1553,0.1592,0.1512,0.1512,0.1638,0.1648,0.1584,0,0,0,0,0,0,0.0123,0.0146,0.02,0.0244,0.029,0.0374,0.0468,0.0606,0.0678,0.0898,0.0971,0.113,0.1252,0.1351,0.14,0.1422,0.139,0.1624,0.162,0.1632,0.1641,0.165,0.1587,0,0,0,0,0]},{"header":{"parameterUnit":"m.s-1","parameterCategory":2,"la1":30.2991,"la2":30.254,"lo1":-89.0895,"lo2":-89.0444,"dy":0.0017,"dx":0.0017,"nx":28,"ny":28,"refTime":"2023-10-20T03:00:00:Z","depth":"4","parameterNumber":3,"parameterNumberName":"V-component_of_CURRENTS"},"data":[0,0,0,0,0,0,0,0,0,0,0,0,0,0,0,0,0,0,0,0,0,0,0,0,0,0,0,0,0,0,0,0,0,0,0,0,0,0,0,0,0,0,0,0,0,0,0,0,0,0,0,0,0,0,0,0,0,0,0.0206,0.0206,0,0.0178,0.0178,0.0177,0.0195,0.0196,0.0197,0.0197,0.0151,0.0149,0.0147,0,0,0,0,0,0,0,0,0,0,0,0,0,0.0241,0.0241,0.0206,0.0206,0.0206,0.0178,0.0178,0.0177,0.0195,0.0196,0.0197,0.0198,0.0152,0.015,0.0147,0,0,0,0,0,0,0,0,0,0,0,0,0,0.0221,0.0241,0.0206,0.0211,0.0211,0.0178,0.0178,0.0177,0.0194,0.0196,0.0197,0.0198,0.0153,0.015,0.0147,0.0102,0,0,0.0137,0.0136,0,0,0,0,0,0,0,0,0.0222,0.0219,0.0211,0.0211,0.0211,0.0192,0.0173,0.0151,0.0194,0.0201,0.0197,0.0199,0.0162,0.0159,0.015,0.01,0.0098,0.0137,0.0135,0.0134,0.0133,0,0,0,0,0,0,0,0.0223,0.022,0.0195,0.021,0.021,0.0203,0.0202,0.0169,0.0174,0.02,0.0201,0.0198,0.0162,0.0153,0.0149,0.0098,0.0137,0.0135,0.0133,0.0132,-0.0024,-0.0026,0,0,0,0,0,0,0.0228,0.0222,0.0196,0.0194,0.022,0.0202,0.02,0.0196,0.0175,0.0173,0.0197,0.0199,0.0158,0.0153,0.0148,0.0099,0.0134,0.0131,0.013,-0.0021,-0.0024,-0.0027,0,0,0,0,0,0,0.0228,0.0225,0.0197,0.0208,0.0204,0.02,0.0195,0.0195,0.0189,0.0173,0.0171,0.0192,0.0158,0.0152,0.0102,0.0098,0.013,0.0127,-0.0019,-0.0022,-0.0025,-0.0001,0,0,0,0,0,0,0.0229,0.0226,0.0223,0.0208,0.0203,0.018,0.0194,0.0194,0.0185,0.0187,0.0167,0.0164,0.0159,0.0106,0.0099,0.0094,0.0125,-0.0016,-0.002,-0.0024,0.0001,-0.0003,-0.0007,0,0,0,0,0,0.0231,0.0226,0.0223,0.0219,0.0199,0.0179,0.0176,0.0178,0.0183,0.0177,0.015,0.0165,0.0074,0.0102,0.0094,0.0088,-0.0014,-0.0019,-0.0024,0.0003,-0.0002,-0.0007,0,0,0,0,0,0,0.0241,0.0227,0.0223,0.0214,0.0198,0.0183,0.0178,0.0172,0.0146,0.0149,0.0133,0.0127,0.0081,0.0064,0.0096,0.0024,0.0033,0.0026,0.0056,0.0051,0.0047,0.0064,0.0122,0,0,0,0,0,0.0239,0.0233,0.0214,0.0206,0.0199,0.0185,0.0177,0.0175,0.0151,0.0143,0.0123,0.0091,0.005,0.0037,-0.0001,-0.004,-0.006,-0.0054,-0.0058,-0.0061,-0.0057,-0.0109,-0.0116,-0.0044,-0.0044,-0.0044,0,0,0.0241,0.0231,0.0228,0.0208,0.0197,0.0184,0.0184,0.0172,0.0158,0.0138,0.0109,0.0074,0.0031,-0.0011,-0.0032,-0.002,-0.0095,-0.0067,-0.0068,-0.0064,-0.0115,-0.0121,-0.0127,-0.0047,-0.0047,-0.0046,0,0,0.024,0.0232,0.0226,0.0213,0.0195,0.0184,0.0179,0.0157,0.0147,0.0106,0.0084,0.0038,-0.0013,-0.0043,-0.0066,-0.0123,-0.012,-0.0133,-0.0126,-0.0176,-0.0181,-0.0186,-0.0217,-0.0225,-0.0126,-0.0126,-0.0126,0,0.0239,0.0233,0.0219,0.0209,0.0202,0.0184,0.0174,0.0154,0.0117,0.01,0.01,0.0003,-0.0028,-0.0085,-0.0101,-0.0127,-0.0148,-0.0092,-0.0176,-0.0181,-0.0187,-0.0218,-0.0227,-0.0126,-0.0126,-0.0126,-0.0126,0,0.0234,0.0229,0.0224,0.0207,0.0193,0.0183,0.0158,0.0139,0.0122,0.0099,0.0039,-0.0015,-0.0065,-0.0088,-0.0108,-0.0165,-0.0166,-0.0176,-0.0149,-0.0191,-0.0223,-0.0233,-0.0125,-0.0125,-0.0125,-0.0125,0,0,0.022,0.0222,0.0219,0.0219,0.0195,0.0184,0.0159,0.0128,0.0115,0.0067,0.0041,-0.0041,-0.0062,-0.0093,-0.0128,-0.017,-0.0226,-0.018,-0.0183,-0.0185,-0.0323,-0.0305,-0.0314,-0.0243,-0.0244,-0.0246,-0.0327,0,0.0216,0.0216,0.0211,0.0202,0.0197,0.0181,0.0163,0.0133,0.0103,0.0071,0.001,-0.0032,-0.0066,-0.0083,-0.0136,-0.0206,-0.0251,-0.0202,-0.0305,-0.0308,-0.0265,-0.0325,-0.0251,-0.0334,-0.0337,-0.0338,-0.0339,0,0.0197,0.0205,0.0209,0.0211,0.0208,0.0203,0.0179,0.0161,0.0112,0.0091,0.0038,-0.0004,-0.0079,-0.0096,-0.023,-0.0194,-0.0257,-0.031,-0.0314,-0.031,-0.0308,-0.029,-0.0357,-0.0355,-0.0354,-0.0353,-0.0352,0,0.0188,0.0194,0.0204,0.0203,0.0204,0.0205,0.0204,0.0168,0.0157,0.0108,0.0092,0.0001,-0.0036,-0.0139,-0.0249,-0.0239,-0.0389,-0.039,-0.0437,-0.0436,-0.0432,-0.0426,-0.0488,-0.0488,-0.0488,-0.0487,-0.0487,0,0.0173,0.0172,0.021,0.0213,0.0229,0.0222,0.0222,0.021,0.0189,0.0178,0.0108,0.007,-0.0048,-0.0145,-0.0248,-0.0373,-0.0395,-0.0447,-0.0463,-0.0422,-0.0414,-0.0438,-0.0431,-0.049,-0.049,-0.0489,-0.0489,0,0.0148,0.0165,0.0184,0.0216,0.0225,0.0239,0.0256,0.0264,0.0234,0.0218,0.0209,0.012,-0.0,-0.013,-0.029,-0.036,-0.0486,-0.0525,-0.0465,-0.0475,-0.0496,-0.0487,-0.0581,-0.0582,-0.0582,-0.0582,-0.0582,0,0.0155,0.0163,0.0203,0.0235,0.0254,0.0276,0.03,0.0289,0.0294,0.0239,0.0234,0.013,0.0056,-0.0157,-0.0297,-0.0485,-0.0508,-0.0561,-0.0538,-0.0503,-0.051,-0.0501,-0.0492,-0.0582,-0.0582,-0.0582,-0.0582,0,0.0187,0.0192,0.022,0.0274,0.0314,0.0334,0.0362,0.0365,0.035,0.0319,0.0259,0.015,0.0018,-0.0143,-0.0283,-0.0425,-0.0521,-0.0563,-0.0564,-0.0543,-0.0505,-0.051,-0.0501,-0.0583,-0.0583,-0.0583,-0.0583,0,0.0237,0.0255,0.0297,0.0326,0.0384,0.0401,0.0392,0.0399,0.0388,0.0334,0.0309,0.016,0.0078,-0.0114,-0.0261,-0.0381,-0.0406,-0.0431,-0.0438,-0.0439,-0.0373,-0.0302,-0.0342,0,0,0,0,0,0.0293,0.0296,0.0353,0.0379,0.0432,0.0441,0.0453,0.0436,0.0405,0.0383,0.035,0.0227,0.0028,-0.0078,-0.0193,-0.027,-0.0433,-0.0409,-0.0466,-0.0587,-0.0586,-0.0531,0,0,0,0,0,0,0.033,0.0371,0.0359,0.0425,0.0449,0.0485,0.0492,0.046,0.043,0.039,0.028,0.0216,0.0012,0.0105,-0.0187,-0.023,-0.0277,-0.0513,-0.0515,-0.0587,-0.0587,-0.0586,-0.0529,0,0,0,0,0]}]]